Regional Weather Roundup
Issued by NWS Mobile, AL

Home | Current Version | Previous Version | Text Only | Print | Product List | Glossary On
Versions: 1 2 3 4 5 6 7 8 9 10 11 12 13 14 15 16 17 18 19 20 21 22
000
ASUS44 KMOB 270112
RWRMOB
REGIONAL WEATHER ROUNDUP
NATIONAL WEATHER SERVICE MOBILE AL
800 PM CDT THU APR 26 2018

NOTE: "FAIR" INDICATES FEW OR NO CLOUDS BELOW 12,000 FEET WITH NO
      SIGNIFICANT WEATHER AND/OR OBSTRUCTIONS TO VISIBILITY.

  * THESE STATIONS ARE PART OF THE UNIVERSITY OF SOUTH ALABAMA
    MESONET AND ARE NOT UNDER NWS OR FAA QUALITY CONTROL.

ALZ061>064-270200-
COASTAL ALABAMA

CITY           SKY/WX    TMP DP  RH WIND       PRES   REMARKS
MOBILE REG APT FAIR      64  51  62 NW7       29.89R
BROOKLEY FIELD FAIR      67  52  58 NW18      29.89R
USA CAMPUS*      N/A     64  50  59 W5        29.89R
DOG RIVER*       N/A     66  52  59 NW8         N/A


CITY           SKY/WX    TMP DP  RH WIND       PRES   REMARKS
GULF SHORES    FAIR      66  52  59 NW3       29.86R

$$

ALZ051>060-270200-
INTERIOR SOUTHWEST AND SOUTH CENTRAL ALABAMA

CITY           SKY/WX    TMP DP  RH WIND       PRES   REMARKS
GREENVILLE     FAIR      62  48  60 W7        29.86R
EVERGREEN      FAIR      63  49  60 VRB5      29.87R
ATMORE*          N/A     63  52  67 NW12      30.54R
ANDALUSIA/OPP  FAIR      65  52  62 NW8       29.85R
ANDALUSIA*       N/A     63  54  72 NW6       29.85R
FLORALA APT    MOCLDY    62  54  74 CALM      29.87R
FLORALA*         N/A     61  54  77 CALM      30.50R

$$

FLZ001>006-270200-
WESTERN FLORIDA PANHANDLE

CITY           SKY/WX    TMP DP  RH WIND       PRES   REMARKS
PENSACOLA      FAIR      69  50  50 NW8       29.85R
NAS PENSACOLA  FAIR      68  51  54 NW6       29.85R
MILTON         FAIR      65  52  62 NW5       29.85R
WHTNG S FIELD  FAIR      64  53  67 NW6       29.85R


CITY           SKY/WX    TMP DP  RH WIND       PRES   REMARKS
JAY*             N/A     64  52  63 NW6         N/A
DUKE FIELD     PTCLDY    67  53  59 NW7       29.84R
CRESTVIEW      FAIR      65  53  65 N9        29.86R
VALPARAISO     PTCLDY    68  60  75 W8        29.83R
DESTIN         FAIR      72  60  66 W5        29.84R

$$

MSZ076-079-270200-
INTERIOR SOUTHEAST MISSISSIPPI

CITY           SKY/WX    TMP DP  RH WIND       PRES   REMARKS
LEAKESVILLE*     N/A     61  52  72 CALM      29.91
AGRICOLA*        N/A     61  50  67 NW6       29.89

$$

MARINE OBSERVATIONS

STATION/POSITION TIME  TEMP    WIND        PRES    WAVE
                       AIR SEA DIR/SP/G            HT/PER
                 (UTC) (F)     (DEG/KT/KT) (MB)    (FT/S)
PETIT BOIS ISLND 0048   69     340/ 16/ 19 1012.1R
GRAND BAY        2330   72     330/ 12     1012.0R
KATRINA CUT      0030   71     330/ 17     1011.2R
CEDAR POINT      0030   70     330/ 11       N/A
E DAUPHIN ISLAND 0000   71     320/ 16/ 17 1010.6R
MIDDLE BAY LIGHT 0030   70     330/ 17     1010.8R
USCG MOBILE BAY  0048   67 70  320/  8/ 13 1011.7R
STATE DOCKS      0048   67 66              1011.6R
MEAHER PARK      0030   68     310/  9     1011.2R
WEEKS BAY        2345   72                 1010.0S
FORT MORGAN      0048   70     330/ 15/ 18   N/A
12 S ORANGE BCH  0050   70     280/ 16/ 17 1010.8R   3/ 5
PENSACOLA BAY    0048   71 71  330/  6/  9 1010.8R
64 S DAUPHIN ISL 0050      73  300/ 10/ 14 1011.7R   2/ 4
67 S FORT MORGAN 0030   69                 1011.2S

$$

SELECTED LOCATIONS ACROSS THE REGION

CITY           SKY/WX    TMP DP  RH WIND       PRES   REMARKS
NEW ORLEANS    FAIR      68  53  58 NW6       29.89R
GULFPORT       FAIR      67  51  56 N15       29.88R
PASCAGOULA AP  FAIR      65  49  56 N9        29.88R
PASCAGOULA*      N/A     64  52  63 CALM      29.88
HATTIESBURG    FAIR      61  52  72 NW3       29.91S
LAUREL         FAIR      59  53  80 W3        29.92R
MERIDIAN       CLOUDY    62  53  72 SW3       29.89R
JACKSON        CLOUDY    61  53  75 NW6       29.90R
MONTGOMERY     CLOUDY    64  52  64 NW10      29.85R
TROY           FAIR      61  53  75 W6        29.85R
ASHFORD*         N/A     63  54  72 NW6       29.85R
DOTHAN         FAIR      65  56  72 NW9       29.86R
PANAMA CITY    FAIR      67  62  84 SW8       29.83R

$$





USA.gov is the U.S. government's official web portal to all federal, state and local government web resources and services.